owner,sensor,date,latitude,longitude,vertical_datum,sea_water_practical_salinity,qcFlag 
WAVCIS,ioos:station:WAVCIS:CSI16:2,2009-04-01T00:00:00Z,29.4012,-89.0355,1.0,33.596,11111222 
WAVCIS,ioos:station:WAVCIS:CSI16:2,2009-04-01T00:15:00Z,29.4012,-89.0355,1.0,33.597,11111222 
WAVCIS,ioos:station:WAVCIS:CSI16:2,2009-04-01T00:30:00Z,29.4012,-89.0355,1.0,33.511,11111222 
WAVCIS,ioos:station:WAVCIS:CSI16:2,2009-04-01T00:45:00Z,29.4012,-89.0355,1.0,33.629,11111222 
WAVCIS,ioos:station:WAVCIS:CSI16:2,2009-04-01T01:00:00Z,29.4012,-89.0355,1.0,33.676,11111222 
WAVCIS,ioos:station:WAVCIS:CSI16:2,2009-04-01T01:15:00Z,29.4012,-89.0355,1.0,33.697,11111222 
WAVCIS,ioos:station:WAVCIS:CSI16:2,2009-04-01T01:30:00Z,29.4012,-89.0355,1.0,33.719,11111222 
WAVCIS,ioos:station:WAVCIS:CSI16:2,2009-04-01T01:45:00Z,29.4012,-89.0355,1.0,33.89,11111222 
WAVCIS,ioos:station:WAVCIS:CSI16:2,2009-04-01T02:00:00Z,29.4012,-89.0355,1.0,33.798,11111222 
WAVCIS,ioos:station:WAVCIS:CSI16:2,2009-04-01T02:15:00Z,29.4012,-89.0355,1.0,33.392,11111222 
WAVCIS,ioos:station:WAVCIS:CSI16:2,2009-04-01T02:30:00Z,29.4012,-89.0355,1.0,33.433,11111222 
WAVCIS,ioos:station:WAVCIS:CSI16:2,2009-04-01T02:45:00Z,29.4012,-89.0355,1.0,33.75,11111222 
WAVCIS,ioos:station:WAVCIS:CSI16:2,2009-04-01T03:00:00Z,29.4012,-89.0355,1.0,33.696,11111222 
WAVCIS,ioos:station:WAVCIS:CSI16:2,2009-04-01T03:15:00Z,29.4012,-89.0355,1.0,33.249,11111222 
WAVCIS,ioos:station:WAVCIS:CSI16:2,2009-04-01T03:30:00Z,29.4012,-89.0355,1.0,33.254,11111222 
WAVCIS,ioos:station:WAVCIS:CSI16:2,2009-04-01T03:45:00Z,29.4012,-89.0355,1.0,33.456,11111222 
WAVCIS,ioos:station:WAVCIS:CSI16:2,2009-04-01T04:00:00Z,29.4012,-89.0355,1.0,33.523,11111222 
WAVCIS,ioos:station:WAVCIS:CSI16:2,2009-04-01T04:15:00Z,29.4012,-89.0355,1.0,33.509,11111222 
WAVCIS,ioos:station:WAVCIS:CSI16:2,2009-04-01T04:30:00Z,29.4012,-89.0355,1.0,33.605,11111222 
WAVCIS,ioos:station:WAVCIS:CSI16:2,2009-04-01T04:45:00Z,29.4012,-89.0355,1.0,33.487,11111222 
WAVCIS,ioos:station:WAVCIS:CSI16:2,2009-04-01T05:00:00Z,29.4012,-89.0355,1.0,33.519,11111222 
WAVCIS,ioos:station:WAVCIS:CSI16:2,2009-04-01T05:15:00Z,29.4012,-89.0355,1.0,33.504,11111222 
WAVCIS,ioos:station:WAVCIS:CSI16:2,2009-04-01T05:30:00Z,29.4012,-89.0355,1.0,33.473,11111222 
WAVCIS,ioos:station:WAVCIS:CSI16:2,2009-04-01T05:45:00Z,29.4012,-89.0355,1.0,33.497,11111222 
WAVCIS,ioos:station:WAVCIS:CSI16:2,2009-04-01T06:00:00Z,29.4012,-89.0355,1.0,33.536,11111222 
WAVCIS,ioos:station:WAVCIS:CSI16:2,2009-04-01T06:15:00Z,29.4012,-89.0355,1.0,33.616,11111222 
WAVCIS,ioos:station:WAVCIS:CSI16:2,2009-04-01T06:30:00Z,29.4012,-89.0355,1.0,33.623,11111222 
WAVCIS,ioos:station:WAVCIS:CSI16:2,2009-04-01T06:45:00Z,29.4012,-89.0355,1.0,33.593,11111222 
WAVCIS,ioos:station:WAVCIS:CSI16:2,2009-04-01T07:00:00Z,29.4012,-89.0355,1.0,33.688,11111222 
WAVCIS,ioos:station:WAVCIS:CSI16:2,2009-04-01T07:15:00Z,29.4012,-89.0355,1.0,33.701,11111222 
WAVCIS,ioos:station:WAVCIS:CSI16:2,2009-04-01T07:30:00Z,29.4012,-89.0355,1.0,33.713,11111222 
WAVCIS,ioos:station:WAVCIS:CSI16:2,2009-04-01T07:45:00Z,29.4012,-89.0355,1.0,33.725,11111222 
WAVCIS,ioos:station:WAVCIS:CSI16:2,2009-04-01T08:00:00Z,29.4012,-89.0355,1.0,33.717,11111222 
WAVCIS,ioos:station:WAVCIS:CSI16:2,2009-04-01T08:15:00Z,29.4012,-89.0355,1.0,33.738,11111222 
WAVCIS,ioos:station:WAVCIS:CSI16:2,2009-04-01T08:30:00Z,29.4012,-89.0355,1.0,33.749,11111222 
WAVCIS,ioos:station:WAVCIS:CSI16:2,2009-04-01T08:45:00Z,29.4012,-89.0355,1.0,33.759,11111222 
WAVCIS,ioos:station:WAVCIS:CSI16:2,2009-04-01T09:00:00Z,29.4012,-89.0355,1.0,33.785,11111222 
WAVCIS,ioos:station:WAVCIS:CSI16:2,2009-04-01T09:15:00Z,29.4012,-89.0355,1.0,33.783,11111222 
WAVCIS,ioos:station:WAVCIS:CSI16:2,2009-04-01T09:30:00Z,29.4012,-89.0355,1.0,33.777,11111222 
WAVCIS,ioos:station:WAVCIS:CSI16:2,2009-04-01T09:45:00Z,29.4012,-89.0355,1.0,33.78,11111222 
WAVCIS,ioos:station:WAVCIS:CSI16:2,2009-04-01T10:00:00Z,29.4012,-89.0355,1.0,33.782,11111222 
WAVCIS,ioos:station:WAVCIS:CSI16:2,2009-04-01T10:15:00Z,29.4012,-89.0355,1.0,33.782,11111222 
WAVCIS,ioos:station:WAVCIS:CSI16:2,2009-04-01T10:30:00Z,29.4012,-89.0355,1.0,33.78,11111222 
WAVCIS,ioos:station:WAVCIS:CSI16:2,2009-04-01T10:45:00Z,29.4012,-89.0355,1.0,33.789,11111222 
WAVCIS,ioos:station:WAVCIS:CSI16:2,2009-04-01T11:00:00Z,29.4012,-89.0355,1.0,33.792,11111222 
WAVCIS,ioos:station:WAVCIS:CSI16:2,2009-04-01T11:15:00Z,29.4012,-89.0355,1.0,33.794,11111222 
WAVCIS,ioos:station:WAVCIS:CSI16:2,2009-04-01T11:30:00Z,29.4012,-89.0355,1.0,33.783,11111222 
WAVCIS,ioos:station:WAVCIS:CSI16:2,2009-04-01T11:45:00Z,29.4012,-89.0355,1.0,33.79,11111222 
WAVCIS,ioos:station:WAVCIS:CSI16:2,2009-04-01T12:00:00Z,29.4012,-89.0355,1.0,33.794,11111222 
WAVCIS,ioos:station:WAVCIS:CSI16:2,2009-04-01T12:15:00Z,29.4012,-89.0355,1.0,33.793,11111222 
WAVCIS,ioos:station:WAVCIS:CSI16:2,2009-04-01T12:30:00Z,29.4012,-89.0355,1.0,33.796,11111222 
WAVCIS,ioos:station:WAVCIS:CSI16:2,2009-04-01T12:45:00Z,29.4012,-89.0355,1.0,33.803,11111222 
WAVCIS,ioos:station:WAVCIS:CSI16:2,2009-04-01T13:00:00Z,29.4012,-89.0355,1.0,33.786,11111222 
WAVCIS,ioos:station:WAVCIS:CSI16:2,2009-04-01T13:15:00Z,29.4012,-89.0355,1.0,33.804,11111222 
WAVCIS,ioos:station:WAVCIS:CSI16:2,2009-04-01T13:30:00Z,29.4012,-89.0355,1.0,33.803,11111222 
WAVCIS,ioos:station:WAVCIS:CSI16:2,2009-04-01T13:45:00Z,29.4012,-89.0355,1.0,33.784,11111222 
WAVCIS,ioos:station:WAVCIS:CSI16:2,2009-04-01T14:00:00Z,29.4012,-89.0355,1.0,33.789,11111222 
WAVCIS,ioos:station:WAVCIS:CSI16:2,2009-04-01T14:15:00Z,29.4012,-89.0355,1.0,33.778,11111222 
WAVCIS,ioos:station:WAVCIS:CSI16:2,2009-04-01T14:30:00Z,29.4012,-89.0355,1.0,33.768,11111222 
WAVCIS,ioos:station:WAVCIS:CSI16:2,2009-04-01T14:45:00Z,29.4012,-89.0355,1.0,33.758,11111222 
WAVCIS,ioos:station:WAVCIS:CSI16:2,2009-04-01T15:00:00Z,29.4012,-89.0355,1.0,33.735,11111222 
WAVCIS,ioos:station:WAVCIS:CSI16:2,2009-04-01T15:15:00Z,29.4012,-89.0355,1.0,33.721,11111222 
WAVCIS,ioos:station:WAVCIS:CSI16:2,2009-04-01T15:30:00Z,29.4012,-89.0355,1.0,33.676,11111222 
WAVCIS,ioos:station:WAVCIS:CSI16:2,2009-04-01T15:45:00Z,29.4012,-89.0355,1.0,33.674,11111222 
WAVCIS,ioos:station:WAVCIS:CSI16:2,2009-04-01T16:00:00Z,29.4012,-89.0355,1.0,33.548,11111222 
WAVCIS,ioos:station:WAVCIS:CSI16:2,2009-04-01T16:15:00Z,29.4012,-89.0355,1.0,33.351,11111222 
WAVCIS,ioos:station:WAVCIS:CSI16:2,2009-04-01T16:30:00Z,29.4012,-89.0355,1.0,33.634,11111222 
WAVCIS,ioos:station:WAVCIS:CSI16:2,2009-04-01T16:45:00Z,29.4012,-89.0355,1.0,33.098,11111222 
WAVCIS,ioos:station:WAVCIS:CSI16:2,2009-04-01T17:00:00Z,29.4012,-89.0355,1.0,33.4,11111222 
WAVCIS,ioos:station:WAVCIS:CSI16:2,2009-04-01T17:15:00Z,29.4012,-89.0355,1.0,32.857,11111222 
WAVCIS,ioos:station:WAVCIS:CSI16:2,2009-04-01T17:30:00Z,29.4012,-89.0355,1.0,32.04,11111222 
WAVCIS,ioos:station:WAVCIS:CSI16:2,2009-04-01T17:45:00Z,29.4012,-89.0355,1.0,32.135,11111222 
WAVCIS,ioos:station:WAVCIS:CSI16:2,2009-04-01T18:00:00Z,29.4012,-89.0355,1.0,31.974,11111222 
WAVCIS,ioos:station:WAVCIS:CSI16:2,2009-04-01T18:15:00Z,29.4012,-89.0355,1.0,31.729,11111222 
WAVCIS,ioos:station:WAVCIS:CSI16:2,2009-04-01T18:30:00Z,29.4012,-89.0355,1.0,31.683,11111222 
WAVCIS,ioos:station:WAVCIS:CSI16:2,2009-04-01T18:45:00Z,29.4012,-89.0355,1.0,31.6,11111222 
WAVCIS,ioos:station:WAVCIS:CSI16:2,2009-04-01T19:00:00Z,29.4012,-89.0355,1.0,31.623,11111222 
WAVCIS,ioos:station:WAVCIS:CSI16:2,2009-04-01T19:15:00Z,29.4012,-89.0355,1.0,31.703,11111222 
WAVCIS,ioos:station:WAVCIS:CSI16:2,2009-04-01T19:30:00Z,29.4012,-89.0355,1.0,31.87,11111222 
WAVCIS,ioos:station:WAVCIS:CSI16:2,2009-04-01T19:45:00Z,29.4012,-89.0355,1.0,31.787,11111222 
WAVCIS,ioos:station:WAVCIS:CSI16:2,2009-04-01T20:00:00Z,29.4012,-89.0355,1.0,31.763,11111222 
WAVCIS,ioos:station:WAVCIS:CSI16:2,2009-04-01T20:15:00Z,29.4012,-89.0355,1.0,31.77,11111222 
WAVCIS,ioos:station:WAVCIS:CSI16:2,2009-04-01T20:30:00Z,29.4012,-89.0355,1.0,31.776,11111222 
WAVCIS,ioos:station:WAVCIS:CSI16:2,2009-04-01T20:45:00Z,29.4012,-89.0355,1.0,31.758,11111222 
WAVCIS,ioos:station:WAVCIS:CSI16:2,2009-04-01T21:00:00Z,29.4012,-89.0355,1.0,31.743,11111222 
WAVCIS,ioos:station:WAVCIS:CSI16:2,2009-04-01T21:15:00Z,29.4012,-89.0355,1.0,31.594,11111222 
WAVCIS,ioos:station:WAVCIS:CSI16:2,2009-04-01T21:30:00Z,29.4012,-89.0355,1.0,31.579,11111222 
WAVCIS,ioos:station:WAVCIS:CSI16:2,2009-04-01T21:45:00Z,29.4012,-89.0355,1.0,31.659,11111222 
WAVCIS,ioos:station:WAVCIS:CSI16:2,2009-04-01T22:00:00Z,29.4012,-89.0355,1.0,31.56,11111222 
WAVCIS,ioos:station:WAVCIS:CSI16:2,2009-04-01T22:15:00Z,29.4012,-89.0355,1.0,31.49,11111222 
WAVCIS,ioos:station:WAVCIS:CSI16:2,2009-04-01T22:30:00Z,29.4012,-89.0355,1.0,31.419,11111222 
WAVCIS,ioos:station:WAVCIS:CSI16:2,2009-04-01T22:45:00Z,29.4012,-89.0355,1.0,31.297,11111222 
WAVCIS,ioos:station:WAVCIS:CSI16:2,2009-04-01T23:00:00Z,29.4012,-89.0355,1.0,31.253,11111222 
WAVCIS,ioos:station:WAVCIS:CSI16:2,2009-04-01T23:15:00Z,29.4012,-89.0355,1.0,31.167,11111222 
WAVCIS,ioos:station:WAVCIS:CSI16:2,2009-04-01T23:30:00Z,29.4012,-89.0355,1.0,31.142,11111222 
WAVCIS,ioos:station:WAVCIS:CSI16:2,2009-04-01T23:45:00Z,29.4012,-89.0355,1.0,31.097,11111222 
WAVCIS,ioos:station:WAVCIS:CSI16:2,2009-04-02T00:00:00Z,29.4012,-89.0355,1.0,30.978,11111222 
WAVCIS,ioos:station:WAVCIS:CSI16:2,2009-04-02T00:15:00Z,29.4012,-89.0355,1.0,30.897,11111222 
WAVCIS,ioos:station:WAVCIS:CSI16:2,2009-04-02T00:30:00Z,29.4012,-89.0355,1.0,30.817,11111222 
WAVCIS,ioos:station:WAVCIS:CSI16:2,2009-04-02T00:45:00Z,29.4012,-89.0355,1.0,30.79,11111222 
WAVCIS,ioos:station:WAVCIS:CSI16:2,2009-04-02T01:00:00Z,29.4012,-89.0355,1.0,30.689,11111222 
WAVCIS,ioos:station:WAVCIS:CSI16:2,2009-04-02T01:15:00Z,29.4012,-89.0355,1.0,30.574,11111222 
WAVCIS,ioos:station:WAVCIS:CSI16:2,2009-04-02T01:30:00Z,29.4012,-89.0355,1.0,30.531,11111222 
WAVCIS,ioos:station:WAVCIS:CSI16:2,2009-04-02T01:45:00Z,29.4012,-89.0355,1.0,30.435,11111222 
WAVCIS,ioos:station:WAVCIS:CSI16:2,2009-04-02T02:00:00Z,29.4012,-89.0355,1.0,30.333,11111222 
WAVCIS,ioos:station:WAVCIS:CSI16:2,2009-04-02T02:15:00Z,29.4012,-89.0355,1.0,30.169,11111222 
WAVCIS,ioos:station:WAVCIS:CSI16:2,2009-04-02T02:30:00Z,29.4012,-89.0355,1.0,30.025,11111222 
WAVCIS,ioos:station:WAVCIS:CSI16:2,2009-04-02T02:45:00Z,29.4012,-89.0355,1.0,29.923,11111222 
WAVCIS,ioos:station:WAVCIS:CSI16:2,2009-04-02T03:00:00Z,29.4012,-89.0355,1.0,29.727,11111222 
WAVCIS,ioos:station:WAVCIS:CSI16:2,2009-04-02T03:15:00Z,29.4012,-89.0355,1.0,29.556,11111222 
WAVCIS,ioos:station:WAVCIS:CSI16:2,2009-04-02T03:30:00Z,29.4012,-89.0355,1.0,29.413,11111222 
WAVCIS,ioos:station:WAVCIS:CSI16:2,2009-04-02T03:45:00Z,29.4012,-89.0355,1.0,29.294,11111222 
WAVCIS,ioos:station:WAVCIS:CSI16:2,2009-04-02T04:00:00Z,29.4012,-89.0355,1.0,29.163,11111222 
WAVCIS,ioos:station:WAVCIS:CSI16:2,2009-04-02T04:15:00Z,29.4012,-89.0355,1.0,29.131,11111222 
WAVCIS,ioos:station:WAVCIS:CSI16:2,2009-04-02T04:30:00Z,29.4012,-89.0355,1.0,29.022,11111222 
WAVCIS,ioos:station:WAVCIS:CSI16:2,2009-04-02T04:45:00Z,29.4012,-89.0355,1.0,28.948,11111222 
WAVCIS,ioos:station:WAVCIS:CSI16:2,2009-04-02T05:00:00Z,29.4012,-89.0355,1.0,28.804,11111222 
WAVCIS,ioos:station:WAVCIS:CSI16:2,2009-04-02T05:15:00Z,29.4012,-89.0355,1.0,28.789,11111222 
WAVCIS,ioos:station:WAVCIS:CSI16:2,2009-04-02T05:30:00Z,29.4012,-89.0355,1.0,28.735,11111222 
WAVCIS,ioos:station:WAVCIS:CSI16:2,2009-04-02T05:45:00Z,29.4012,-89.0355,1.0,28.774,11111222 
WAVCIS,ioos:station:WAVCIS:CSI16:2,2009-04-02T06:00:00Z,29.4012,-89.0355,1.0,28.813,11111222 
WAVCIS,ioos:station:WAVCIS:CSI16:2,2009-04-02T06:15:00Z,29.4012,-89.0355,1.0,28.864,11111222 
WAVCIS,ioos:station:WAVCIS:CSI16:2,2009-04-02T06:30:00Z,29.4012,-89.0355,1.0,28.857,11111222 
WAVCIS,ioos:station:WAVCIS:CSI16:2,2009-04-02T06:45:00Z,29.4012,-89.0355,1.0,28.847,11111222 
WAVCIS,ioos:station:WAVCIS:CSI16:2,2009-04-02T07:00:00Z,29.4012,-89.0355,1.0,28.869,11111222 
WAVCIS,ioos:station:WAVCIS:CSI16:2,2009-04-02T07:15:00Z,29.4012,-89.0355,1.0,28.868,11111222 
WAVCIS,ioos:station:WAVCIS:CSI16:2,2009-04-02T07:30:00Z,29.4012,-89.0355,1.0,28.909,11111222 
WAVCIS,ioos:station:WAVCIS:CSI16:2,2009-04-02T07:45:00Z,29.4012,-89.0355,1.0,28.748,11111222 
WAVCIS,ioos:station:WAVCIS:CSI16:2,2009-04-02T08:00:00Z,29.4012,-89.0355,1.0,28.821,11111222 
WAVCIS,ioos:station:WAVCIS:CSI16:2,2009-04-02T08:15:00Z,29.4012,-89.0355,1.0,28.771,11111222 
WAVCIS,ioos:station:WAVCIS:CSI16:2,2009-04-02T08:30:00Z,29.4012,-89.0355,1.0,28.737,11111222 
WAVCIS,ioos:station:WAVCIS:CSI16:2,2009-04-02T08:45:00Z,29.4012,-89.0355,1.0,28.825,11111222 
WAVCIS,ioos:station:WAVCIS:CSI16:2,2009-04-02T09:00:00Z,29.4012,-89.0355,1.0,28.891,11111222 
WAVCIS,ioos:station:WAVCIS:CSI16:2,2009-04-02T09:15:00Z,29.4012,-89.0355,1.0,28.874,11111222 
WAVCIS,ioos:station:WAVCIS:CSI16:2,2009-04-02T09:30:00Z,29.4012,-89.0355,1.0,28.855,11111222 
WAVCIS,ioos:station:WAVCIS:CSI16:2,2009-04-02T09:45:00Z,29.4012,-89.0355,1.0,28.885,11111222 
WAVCIS,ioos:station:WAVCIS:CSI16:2,2009-04-02T10:00:00Z,29.4012,-89.0355,1.0,28.908,11111222 
WAVCIS,ioos:station:WAVCIS:CSI16:2,2009-04-02T10:15:00Z,29.4012,-89.0355,1.0,28.959,11111222 
WAVCIS,ioos:station:WAVCIS:CSI16:2,2009-04-02T10:30:00Z,29.4012,-89.0355,1.0,28.995,11111222 
WAVCIS,ioos:station:WAVCIS:CSI16:2,2009-04-02T10:45:00Z,29.4012,-89.0355,1.0,29.02,11111222 
WAVCIS,ioos:station:WAVCIS:CSI16:2,2009-04-02T11:00:00Z,29.4012,-89.0355,1.0,29.018,11111222 
WAVCIS,ioos:station:WAVCIS:CSI16:2,2009-04-02T11:15:00Z,29.4012,-89.0355,1.0,29.033,11111222 
WAVCIS,ioos:station:WAVCIS:CSI16:2,2009-04-02T11:30:00Z,29.4012,-89.0355,1.0,29.058,11111222 
WAVCIS,ioos:station:WAVCIS:CSI16:2,2009-04-02T11:45:00Z,29.4012,-89.0355,1.0,29.094,11111222 
WAVCIS,ioos:station:WAVCIS:CSI16:2,2009-04-02T12:00:00Z,29.4012,-89.0355,1.0,29.089,11111222 
WAVCIS,ioos:station:WAVCIS:CSI16:2,2009-04-02T12:15:00Z,29.4012,-89.0355,1.0,29.126,11111222 
WAVCIS,ioos:station:WAVCIS:CSI16:2,2009-04-02T12:30:00Z,29.4012,-89.0355,1.0,29.157,11111222 
WAVCIS,ioos:station:WAVCIS:CSI16:2,2009-04-02T12:45:00Z,29.4012,-89.0355,1.0,29.237,11111222 
WAVCIS,ioos:station:WAVCIS:CSI16:2,2009-04-02T13:00:00Z,29.4012,-89.0355,1.0,29.288,11111222 
WAVCIS,ioos:station:WAVCIS:CSI16:2,2009-04-02T13:15:00Z,29.4012,-89.0355,1.0,29.304,11111222 
WAVCIS,ioos:station:WAVCIS:CSI16:2,2009-04-02T13:30:00Z,29.4012,-89.0355,1.0,29.333,11111222 
WAVCIS,ioos:station:WAVCIS:CSI16:2,2009-04-02T13:45:00Z,29.4012,-89.0355,1.0,29.397,11111222 
WAVCIS,ioos:station:WAVCIS:CSI16:2,2009-04-02T14:00:00Z,29.4012,-89.0355,1.0,29.546,11111222 
WAVCIS,ioos:station:WAVCIS:CSI16:2,2009-04-02T14:15:00Z,29.4012,-89.0355,1.0,29.635,11111222 
WAVCIS,ioos:station:WAVCIS:CSI16:2,2009-04-02T14:30:00Z,29.4012,-89.0355,1.0,29.669,11111222 
WAVCIS,ioos:station:WAVCIS:CSI16:2,2009-04-02T14:45:00Z,29.4012,-89.0355,1.0,29.77,11111222 
WAVCIS,ioos:station:WAVCIS:CSI16:2,2009-04-02T15:00:00Z,29.4012,-89.0355,1.0,29.85,11111222 
WAVCIS,ioos:station:WAVCIS:CSI16:2,2009-04-02T15:15:00Z,29.4012,-89.0355,1.0,29.93,11111222 
WAVCIS,ioos:station:WAVCIS:CSI16:2,2009-04-02T15:30:00Z,29.4012,-89.0355,1.0,29.967,11111222 
WAVCIS,ioos:station:WAVCIS:CSI16:2,2009-04-02T15:45:00Z,29.4012,-89.0355,1.0,30.113,11111222 
WAVCIS,ioos:station:WAVCIS:CSI16:2,2009-04-02T16:00:00Z,29.4012,-89.0355,1.0,30.207,11111222 
WAVCIS,ioos:station:WAVCIS:CSI16:2,2009-04-02T16:15:00Z,29.4012,-89.0355,1.0,30.293,11111222 
WAVCIS,ioos:station:WAVCIS:CSI16:2,2009-04-02T16:30:00Z,29.4012,-89.0355,1.0,30.334,11111222 
WAVCIS,ioos:station:WAVCIS:CSI16:2,2009-04-02T16:45:00Z,29.4012,-89.0355,1.0,30.385,11111222 
WAVCIS,ioos:station:WAVCIS:CSI16:2,2009-04-02T17:00:00Z,29.4012,-89.0355,1.0,30.402,11111222 
WAVCIS,ioos:station:WAVCIS:CSI16:2,2009-04-02T17:15:00Z,29.4012,-89.0355,1.0,30.459,11111222 
WAVCIS,ioos:station:WAVCIS:CSI16:2,2009-04-02T17:30:00Z,29.4012,-89.0355,1.0,30.51,11111222 
WAVCIS,ioos:station:WAVCIS:CSI16:2,2009-04-02T17:45:00Z,29.4012,-89.0355,1.0,30.531,11111222 
WAVCIS,ioos:station:WAVCIS:CSI16:2,2009-04-02T18:00:00Z,29.4012,-89.0355,1.0,30.57,11111222 
WAVCIS,ioos:station:WAVCIS:CSI16:2,2009-04-02T18:15:00Z,29.4012,-89.0355,1.0,30.632,11111222 
WAVCIS,ioos:station:WAVCIS:CSI16:2,2009-04-02T18:30:00Z,29.4012,-89.0355,1.0,30.657,11111222 
WAVCIS,ioos:station:WAVCIS:CSI16:2,2009-04-02T18:45:00Z,29.4012,-89.0355,1.0,30.706,11111222 
WAVCIS,ioos:station:WAVCIS:CSI16:2,2009-04-02T19:00:00Z,29.4012,-89.0355,1.0,30.731,11111222 
WAVCIS,ioos:station:WAVCIS:CSI16:2,2009-04-02T19:15:00Z,29.4012,-89.0355,1.0,30.762,11111222 
WAVCIS,ioos:station:WAVCIS:CSI16:2,2009-04-02T19:30:00Z,29.4012,-89.0355,1.0,30.814,11111222 
WAVCIS,ioos:station:WAVCIS:CSI16:2,2009-04-02T19:45:00Z,29.4012,-89.0355,1.0,30.851,11111222 
WAVCIS,ioos:station:WAVCIS:CSI16:2,2009-04-02T20:00:00Z,29.4012,-89.0355,1.0,30.904,11111222 
WAVCIS,ioos:station:WAVCIS:CSI16:2,2009-04-02T20:15:00Z,29.4012,-89.0355,1.0,30.945,11111222 
WAVCIS,ioos:station:WAVCIS:CSI16:2,2009-04-02T20:30:00Z,29.4012,-89.0355,1.0,30.911,11111222 
WAVCIS,ioos:station:WAVCIS:CSI16:2,2009-04-02T20:45:00Z,29.4012,-89.0355,1.0,30.719,11111222 
WAVCIS,ioos:station:WAVCIS:CSI16:2,2009-04-02T21:00:00Z,29.4012,-89.0355,1.0,31.023,11111222 
WAVCIS,ioos:station:WAVCIS:CSI16:2,2009-04-02T21:15:00Z,29.4012,-89.0355,1.0,31.152,11111222 
WAVCIS,ioos:station:WAVCIS:CSI16:2,2009-04-02T21:30:00Z,29.4012,-89.0355,1.0,30.975,11111222 
WAVCIS,ioos:station:WAVCIS:CSI16:2,2009-04-02T21:45:00Z,29.4012,-89.0355,1.0,31.197,11111222 
WAVCIS,ioos:station:WAVCIS:CSI16:2,2009-04-02T22:00:00Z,29.4012,-89.0355,1.0,31.259,11111222 
WAVCIS,ioos:station:WAVCIS:CSI16:2,2009-04-02T22:15:00Z,29.4012,-89.0355,1.0,31.248,11111222 
WAVCIS,ioos:station:WAVCIS:CSI16:2,2009-04-02T22:30:00Z,29.4012,-89.0355,1.0,31.329,11111222 
WAVCIS,ioos:station:WAVCIS:CSI16:2,2009-04-02T22:45:00Z,29.4012,-89.0355,1.0,31.356,11111222 
WAVCIS,ioos:station:WAVCIS:CSI16:2,2009-04-02T23:00:00Z,29.4012,-89.0355,1.0,31.373,11111222 
WAVCIS,ioos:station:WAVCIS:CSI16:2,2009-04-02T23:15:00Z,29.4012,-89.0355,1.0,31.376,11111222 
WAVCIS,ioos:station:WAVCIS:CSI16:2,2009-04-02T23:30:00Z,29.4012,-89.0355,1.0,31.386,11111222 
WAVCIS,ioos:station:WAVCIS:CSI16:2,2009-04-02T23:45:00Z,29.4012,-89.0355,1.0,31.381,11111222 
WAVCIS,ioos:station:WAVCIS:CSI16:2,2009-04-03T00:00:00Z,29.4012,-89.0355,1.0,31.395,11111222 
WAVCIS,ioos:station:WAVCIS:CSI16:2,2009-04-03T00:15:00Z,29.4012,-89.0355,1.0,31.41,11111222 
WAVCIS,ioos:station:WAVCIS:CSI16:2,2009-04-03T00:30:00Z,29.4012,-89.0355,1.0,29.98,11111222 
WAVCIS,ioos:station:WAVCIS:CSI16:2,2009-04-03T00:45:00Z,29.4012,-89.0355,1.0,30.977,11111222 
WAVCIS,ioos:station:WAVCIS:CSI16:2,2009-04-03T01:00:00Z,29.4012,-89.0355,1.0,31.404,11111222 
WAVCIS,ioos:station:WAVCIS:CSI16:2,2009-04-03T01:15:00Z,29.4012,-89.0355,1.0,31.679,11111222 
WAVCIS,ioos:station:WAVCIS:CSI16:2,2009-04-03T01:30:00Z,29.4012,-89.0355,1.0,31.741,11111222 
WAVCIS,ioos:station:WAVCIS:CSI16:2,2009-04-03T01:45:00Z,29.4012,-89.0355,1.0,31.693,11111222 
WAVCIS,ioos:station:WAVCIS:CSI16:2,2009-04-03T02:00:00Z,29.4012,-89.0355,1.0,32.066,11111222 
WAVCIS,ioos:station:WAVCIS:CSI16:2,2009-04-03T02:15:00Z,29.4012,-89.0355,1.0,32.216,11111222 
WAVCIS,ioos:station:WAVCIS:CSI16:2,2009-04-03T02:30:00Z,29.4012,-89.0355,1.0,32.359,11111222 
WAVCIS,ioos:station:WAVCIS:CSI16:2,2009-04-03T02:45:00Z,29.4012,-89.0355,1.0,32.458,11111222 
WAVCIS,ioos:station:WAVCIS:CSI16:2,2009-04-03T03:00:00Z,29.4012,-89.0355,1.0,32.523,11111222 
WAVCIS,ioos:station:WAVCIS:CSI16:2,2009-04-03T03:15:00Z,29.4012,-89.0355,1.0,32.614,11111222 
WAVCIS,ioos:station:WAVCIS:CSI16:2,2009-04-03T03:30:00Z,29.4012,-89.0355,1.0,32.67,11111222 
WAVCIS,ioos:station:WAVCIS:CSI16:2,2009-04-03T03:45:00Z,29.4012,-89.0355,1.0,32.716,11111222 
WAVCIS,ioos:station:WAVCIS:CSI16:2,2009-04-03T04:00:00Z,29.4012,-89.0355,1.0,32.781,11111222 
WAVCIS,ioos:station:WAVCIS:CSI16:2,2009-04-03T04:15:00Z,29.4012,-89.0355,1.0,32.846,11111222 
WAVCIS,ioos:station:WAVCIS:CSI16:2,2009-04-03T04:30:00Z,29.4012,-89.0355,1.0,32.924,11111222 
WAVCIS,ioos:station:WAVCIS:CSI16:2,2009-04-03T04:45:00Z,29.4012,-89.0355,1.0,32.976,11111222 
WAVCIS,ioos:station:WAVCIS:CSI16:2,2009-04-03T05:00:00Z,29.4012,-89.0355,1.0,33.0,11111222 
WAVCIS,ioos:station:WAVCIS:CSI16:2,2009-04-03T05:15:00Z,29.4012,-89.0355,1.0,33.032,11111222 
WAVCIS,ioos:station:WAVCIS:CSI16:2,2009-04-03T05:30:00Z,29.4012,-89.0355,1.0,32.966,11111222 
WAVCIS,ioos:station:WAVCIS:CSI16:2,2009-04-03T05:45:00Z,29.4012,-89.0355,1.0,33.143,11111222 
WAVCIS,ioos:station:WAVCIS:CSI16:2,2009-04-03T06:00:00Z,29.4012,-89.0355,1.0,33.14,11111222 
WAVCIS,ioos:station:WAVCIS:CSI16:2,2009-04-03T06:15:00Z,29.4012,-89.0355,1.0,33.083,11111222 
WAVCIS,ioos:station:WAVCIS:CSI16:2,2009-04-03T06:30:00Z,29.4012,-89.0355,1.0,33.102,11111222 
WAVCIS,ioos:station:WAVCIS:CSI16:2,2009-04-03T06:45:00Z,29.4012,-89.0355,1.0,33.145,11111222 
WAVCIS,ioos:station:WAVCIS:CSI16:2,2009-04-03T07:00:00Z,29.4012,-89.0355,1.0,33.123,11111222 
WAVCIS,ioos:station:WAVCIS:CSI16:2,2009-04-03T07:15:00Z,29.4012,-89.0355,1.0,33.097,11111222 
WAVCIS,ioos:station:WAVCIS:CSI16:2,2009-04-03T07:30:00Z,29.4012,-89.0355,1.0,33.169,11111222 
WAVCIS,ioos:station:WAVCIS:CSI16:2,2009-04-03T07:45:00Z,29.4012,-89.0355,1.0,33.203,11111222 
WAVCIS,ioos:station:WAVCIS:CSI16:2,2009-04-03T08:00:00Z,29.4012,-89.0355,1.0,33.251,11111222 
WAVCIS,ioos:station:WAVCIS:CSI16:2,2009-04-03T08:15:00Z,29.4012,-89.0355,1.0,33.312,11111222 
WAVCIS,ioos:station:WAVCIS:CSI16:2,2009-04-03T08:30:00Z,29.4012,-89.0355,1.0,33.354,11111222 
WAVCIS,ioos:station:WAVCIS:CSI16:2,2009-04-03T08:45:00Z,29.4012,-89.0355,1.0,33.407,11111222 
WAVCIS,ioos:station:WAVCIS:CSI16:2,2009-04-03T09:00:00Z,29.4012,-89.0355,1.0,33.455,11111222 
WAVCIS,ioos:station:WAVCIS:CSI16:2,2009-04-03T09:15:00Z,29.4012,-89.0355,1.0,33.495,11111222 
WAVCIS,ioos:station:WAVCIS:CSI16:2,2009-04-03T09:30:00Z,29.4012,-89.0355,1.0,33.52,11111222 
WAVCIS,ioos:station:WAVCIS:CSI16:2,2009-04-03T09:45:00Z,29.4012,-89.0355,1.0,33.531,11111222 
WAVCIS,ioos:station:WAVCIS:CSI16:2,2009-04-03T10:00:00Z,29.4012,-89.0355,1.0,33.592,11111222 
WAVCIS,ioos:station:WAVCIS:CSI16:2,2009-04-03T10:15:00Z,29.4012,-89.0355,1.0,33.623,11111222 
WAVCIS,ioos:station:WAVCIS:CSI16:2,2009-04-03T10:30:00Z,29.4012,-89.0355,1.0,33.655,11111222 
WAVCIS,ioos:station:WAVCIS:CSI16:2,2009-04-03T10:45:00Z,29.4012,-89.0355,1.0,33.694,11111222 
WAVCIS,ioos:station:WAVCIS:CSI16:2,2009-04-03T11:00:00Z,29.4012,-89.0355,1.0,33.723,11111222 
WAVCIS,ioos:station:WAVCIS:CSI16:2,2009-04-03T11:15:00Z,29.4012,-89.0355,1.0,33.787,11111222 
WAVCIS,ioos:station:WAVCIS:CSI16:2,2009-04-03T11:30:00Z,29.4012,-89.0355,1.0,33.839,11111222 
WAVCIS,ioos:station:WAVCIS:CSI16:2,2009-04-03T11:45:00Z,29.4012,-89.0355,1.0,33.896,11111222 
WAVCIS,ioos:station:WAVCIS:CSI16:2,2009-04-03T12:00:00Z,29.4012,-89.0355,1.0,33.906,11111222 
WAVCIS,ioos:station:WAVCIS:CSI16:2,2009-04-03T12:15:00Z,29.4012,-89.0355,1.0,33.944,11111222 
WAVCIS,ioos:station:WAVCIS:CSI16:2,2009-04-03T12:30:00Z,29.4012,-89.0355,1.0,33.992,11111222 
WAVCIS,ioos:station:WAVCIS:CSI16:2,2009-04-03T12:45:00Z,29.4012,-89.0355,1.0,34.013,11111222 
WAVCIS,ioos:station:WAVCIS:CSI16:2,2009-04-03T13:00:00Z,29.4012,-89.0355,1.0,34.063,11111222 
WAVCIS,ioos:station:WAVCIS:CSI16:2,2009-04-03T13:15:00Z,29.4012,-89.0355,1.0,34.102,11111222 
WAVCIS,ioos:station:WAVCIS:CSI16:2,2009-04-03T13:30:00Z,29.4012,-89.0355,1.0,34.131,11111222 
WAVCIS,ioos:station:WAVCIS:CSI16:2,2009-04-03T13:45:00Z,29.4012,-89.0355,1.0,34.17,11111222 
WAVCIS,ioos:station:WAVCIS:CSI16:2,2009-04-03T14:00:00Z,29.4012,-89.0355,1.0,34.24,11111222 
WAVCIS,ioos:station:WAVCIS:CSI16:2,2009-04-03T14:15:00Z,29.4012,-89.0355,1.0,34.248,11111222 
WAVCIS,ioos:station:WAVCIS:CSI16:2,2009-04-03T14:30:00Z,29.4012,-89.0355,1.0,34.309,11111222 
WAVCIS,ioos:station:WAVCIS:CSI16:2,2009-04-03T14:45:00Z,29.4012,-89.0355,1.0,34.321,11111222 
WAVCIS,ioos:station:WAVCIS:CSI16:2,2009-04-03T15:00:00Z,29.4012,-89.0355,1.0,34.356,11111222 
WAVCIS,ioos:station:WAVCIS:CSI16:2,2009-04-03T15:15:00Z,29.4012,-89.0355,1.0,34.365,11111222 